EDT,Max TemperatureF,Mean TemperatureF,Min TemperatureF,Max Dew PointF,MeanDew PointF,Min DewpointF,Max Humidity, Mean Humidity, Min Humidity, Max Sea Level PressureIn, Mean Sea Level PressureIn, Min Sea Level PressureIn, Max VisibilityMiles, Mean VisibilityMiles, Min VisibilityMiles, Max Wind SpeedMPH, Mean Wind SpeedMPH, Max Gust SpeedMPH,PrecipitationIn, CloudCover, Events, WindDirDegrees
2013-9-1,84,76,68,75,70,66,96,86,65,29.85,29.81,29.76,10,4,1,5,0,,0.00,4,Rain,155
2013-9-2,88,76,66,73,69,64,100,85,59,29.81,29.76,29.69,10,6,2,9,1,,0.06,4,Rain-Thunderstorm,164
2013-9-3,79,70,59,67,58,53,93,68,44,29.98,29.86,29.76,10,9,4,10,4,18,0.00,4,,296
2013-9-4,82,66,52,59,55,50,97,71,39,30.07,30.02,29.98,10,9,6,10,2,16,0.00,0,,289
2013-9-5,79,66,55,61,51,42,97,66,28,30.20,30.06,29.99,10,9,4,12,3,22,0.00,2,,4
2013-9-6,72,56,42,49,43,38,93,66,30,30.31,30.23,30.16,10,10,9,6,2,,0.00,0,,36
2013-9-7,79,61,44,61,50,42,100,77,36,30.16,30.06,29.92,10,8,0,7,1,,0.00,3,Fog,160
2013-9-8,79,66,51,64,58,43,100,78,46,30.13,29.95,29.89,10,6,2,13,2,18,0.07,5,Rain,18
2013-9-9,72,56,42,60,50,40,93,77,54,30.25,30.17,30.12,10,10,10,9,1,,0.00,3,,190
2013-9-10,91,76,62,73,66,60,97,80,54,30.16,30.10,30.03,10,7,2,8,2,,0.00,3,,178
2013-9-11,93,80,66,76,70,64,100,88,56,30.14,30.08,30.00,10,3,1,10,1,23,0.28,2,Rain-Thunderstorm,202
2013-9-12,84,76,68,72,69,64,100,92,65,30.01,29.89,29.74,9,3,0,21,1,33,0.20,6,Fog-Rain-Thunderstorm,226
2013-9-13,73,64,55,65,53,46,93,69,44,29.96,29.81,29.72,10,10,7,12,5,20,0.01,5,Rain,330
2013-9-14,63,54,44,50,45,42,93,75,50,30.17,30.08,29.97,10,10,2,9,4,16,0.01,5,Rain,345
2013-9-15,72,56,41,57,48,39,100,85,46,30.27,30.17,30.07,10,6,0,5,0,,0.01,3,Fog,160
2013-9-16,71,62,52,58,52,41,96,75,51,30.33,30.15,30.06,10,8,2,9,2,,0.07,5,Rain,3
2013-9-17,66,52,37,48,40,35,93,71,32,30.48,30.39,30.33,10,10,10,6,3,,0.00,0,,355
2013-9-18,71,54,39,49,43,37,100,82,39,30.36,30.30,30.18,10,7,0,8,1,,0.00,2,Fog,170
2013-9-19,75,58,42,59,46,39,100,87,49,30.21,30.17,30.07,10,5,0,6,0,,0.00,4,Fog,134
2013-9-20,80,64,48,60,55,46,100,83,48,30.10,30.04,29.94,10,5,0,8,1,,0.01,2,Fog,160
2013-9-21,71,63,55,63,60,54,100,88,68,29.94,29.77,29.68,10,7,1,9,4,17,0.63,7,Rain,178
2013-9-22,68,58,51,60,51,42,100,80,47,29.99,29.82,29.73,10,6,0,9,2,16,0.01,5,Fog-Rain,341
2013-9-23,66,54,43,47,43,39,93,68,45,30.11,30.07,30.00,10,10,8,10,5,,0.00,4,,350
2013-9-24,73,55,37,51,43,35,97,75,33,30.14,30.05,29.96,10,9,5,8,1,,0.00,0,,342
2013-9-25,73,56,39,55,43,37,100,86,37,30.03,29.99,29.91,10,8,0,5,0,,0.00,3,Fog,113
2013-9-26,75,58,42,55,46,39,100,80,40,30.10,30.03,29.98,10,9,2,7,0,,0.00,3,,340
2013-9-27,75,62,50,55,52,48,96,77,40,30.26,30.19,30.11,10,10,10,7,1,,0.00,5,,26
2013-9-28,72,60,48,55,51,46,96,82,49,30.34,30.28,30.24,10,9,7,5,1,,0.00,6,,359
2013-9-29,72,56,42,54,48,42,100,85,49,30.24,30.17,30.08,10,6,0,7,0,,0.01,2,Fog,130
2013-9-30,75,60,44,56,49,42,100,86,44,30.11,30.06,29.97,10,6,0,9,0,,0.00,3,Fog,140